Tracking 35035 objects as of 16-Aug-2026
HD Live streaming from Space Station
objects crossing your sky now

THORAD AGENA D DEB


THORAD AGENA D DEB is no longer on orbit


NORAD ID: 5700
Int'l Code: 1970-025MF
Launch date: April 8, 1970
Source: United States (US)
Launch site: AIR FORCE WESTERN TEST RANGE (AFWTR)
Decay date: 1979-06-16

Note: This is SATELLITE DEBRIS
Your satellite tracking list
Your tracking list is empty




NASA's NSSDC Master Catalog

Two Line Element Set (TLE):
1 05700U 70025 MF 78267.84948653  .00027874 +00000-0 +00000-0 0  9991
2 05700 099.6825 232.4859 0186987 105.9221 256.2623 14.72177602444224
Source of the keplerian elements: AFSPC